Location: Heppenheim
(49.6410°N, 8.6370°E)
Time: 17:09:10
(UTC+02:00)

ISS - Pass Details

Date: 11 May 2026
Orbit: 414 x 424 km, 51.6° (Epoch: 10 May)

Event Time Altitude Azimuth Distance (km) Brightness Sun altitude
Rises 23:17:53 0° 265° (W) 2,350 0.4 -17.0°
Reaches altitude 10° 23:19:59 10° 268° (W) 1,489 -0.6 -17.1°
Maximum altitude 23:23:19 65° 351° (N) 461 -3.4 -17.4°
Enters shadow 23:26:25 12° 74° (ENE) 1,400 -1.2 -17.6°
